Coimbatore, India

2:46 AM IST on November 23, 2017 (GMT +0530)
Coimbatore

Weather History for VOCB - February, 2014

Change the Weather History Date:

Wednesday, February 26, 2014

  Actual Average Record
Temperature  
Mean Temperature 80 °F -  
Max Temperature 91 °F - - ()
Min Temperature 70 °F - - ()
Cooling Degree Days 16    
Growing Degree Days 30 (Base 50)    
Moisture  
Dew Point 61 °F    
Average Humidity 52    
Maximum Humidity 88    
Minimum Humidity 21    
Precipitation  
Precipitation 0.00 in - - ()
Sea Level Pressure  
Sea Level Pressure 29.96 in    
Wind  
Wind Speed 6 mph ()    
Max Wind Speed 9 mph    
Max Gust Speed -    
Visibility 3.5 miles    
Events      
T = Trace of Precipitation, MM = Missing Value Source: Averaged Metar Reports

Daily Weather History Graph

Daily Weather History Graph

Search for Another Location

Airport or City:

Trip Planner

Search our weather history database for the weather conditions in past years. The results will help you decide how hot, cold, wet, or windy it might be!

Date:

Astronomy

Feb. 26, 2014 Rise Set
Actual Time 6:38 AM IST 6:31 PM IST
Civil Twilight 6:16 AM IST 6:52 PM IST
Nautical Twilight 5:52 AM IST 7:17 PM IST
Astronomical Twilight 5:27 AM IST 7:41 PM IST
Moon 3:35 AM IST (2/26) 3:36 PM IST (2/26)
Length of Visible Light 12h 35m
Length of Day
11h 53m
Waning Crescent, 13% of the Moon is Illuminated
Feb 26
Waning Crescent
Mar 1
New
Mar 8
First Quarter
Mar 16
Full
Mar 24
Last Quarter

Hourly Weather History & Observations

Time (IST) Temp. Heat Index Dew Point Humidity Pressure Visibility Wind Dir Wind Speed Gust Speed Precip Events Conditions
1:30 AM 75.2 °F - 66.2 °F 73% 30.01 in 3.7 mi ENE 8.1 mph - N/A   Scattered Clouds
2:30 AM 74 °F - 67 °F 74% 29.94 in 2 mi ENE 5.8 mph - -   Haze
2:30 AM 75.2 °F - 68.0 °F 78% 29.98 in 3.7 mi ENE 5.8 mph - N/A   Scattered Clouds
5:30 AM 72 °F - 67 °F 80% 29.96 in 2 mi East 4.6 mph - -   Haze
5:30 AM 71.6 °F - 68.0 °F 88% 29.98 in 2.5 mi East 4.6 mph - N/A   Haze
6:00 AM 71.6 °F - 68.0 °F 88% 30.01 in 2.5 mi ENE 2.3 mph - N/A   Haze
6:30 AM 71.6 °F - 68.0 °F 88% 30.01 in 2.5 mi ESE 3.5 mph - N/A   Haze
7:00 AM 71.6 °F - 66.2 °F 83% 30.04 in 2.5 mi ENE 4.6 mph - N/A   Haze
7:30 AM 71.6 °F - 66.2 °F 83% 30.04 in 2.5 mi East 5.8 mph - N/A   Haze
8:00 AM 73.4 °F - 66.2 °F 78% 30.04 in 2.5 mi East 9.2 mph - N/A   Haze
8:30 AM 75 °F - 68 °F 72% 30.01 in 2 mi East 5.8 mph - -   Haze
9:00 AM 75.2 °F - 68.0 °F 78% 30.06 in 3.1 mi ENE 5.8 mph - N/A   Haze
9:30 AM 77.0 °F - 64.4 °F 65% 30.06 in 3.1 mi ESE 9.2 mph - N/A   Haze
10:30 AM 80.6 °F 82.3 °F 64.4 °F 58% 30.06 in 3.1 mi NE 3.5 mph - N/A   Haze
11:00 AM 80.6 °F 82.7 °F 66.2 °F 61% 30.04 in 3.1 mi East 6.9 mph - N/A   Haze
11:30 AM 81 °F - 65 °F 48% 29.98 in 2 mi SE 5.8 mph - -   Haze
11:30 AM 80.6 °F 82.3 °F 64.4 °F 58% 30.04 in 3.7 mi SE 5.8 mph - N/A   Scattered Clouds
12:30 PM 84.2 °F 85.6 °F 64.4 °F 51% 29.98 in 5.0 mi NE 8.1 mph - N/A   Scattered Clouds
1:00 PM 84.2 °F 85.6 °F 64.4 °F 51% 29.98 in 5.0 mi East 9.2 mph - N/A   Partly Cloudy
2:00 PM 87.8 °F 86.5 °F 57.2 °F 35% 29.92 in 5.0 mi ESE 9.2 mph - N/A   Partly Cloudy
2:30 PM 89 °F - 56 °F 23% 29.82 in 2 mi ENE 6.9 mph - -   Haze
2:30 PM 89.6 °F 87.7 °F 55.4 °F 31% 29.89 in 5.0 mi ENE 6.9 mph - N/A   Unknown
3:00 PM 89.6 °F 87.7 °F 55.4 °F 31% 29.89 in 5.0 mi ENE 9.2 mph - N/A   Partly Cloudy
3:30 PM 89.6 °F 87.7 °F 55.4 °F 31% 29.89 in 5.0 mi ENE 6.9 mph - N/A   Partly Cloudy
4:00 PM 89.6 °F 87.7 °F 55.4 °F 31% 29.89 in 5.0 mi ENE 6.9 mph - N/A   Partly Cloudy
4:30 PM 91.4 °F 89.4 °F 55.4 °F 29% 29.89 in 5.0 mi NE 6.9 mph - N/A   Partly Cloudy
5:00 PM 91.4 °F 89.4 °F 55.4 °F 29% 29.89 in 5.0 mi East 4.6 mph - N/A   Partly Cloudy
5:30 PM 90 °F - 55 °F 21% 29.80 in 2 mi NE 4.6 mph - -   Haze
5:30 PM 89.6 °F 87.7 °F 55.4 °F 31% 29.89 in 5.0 mi NE 4.6 mph - N/A   Partly Cloudy
6:00 PM 89.6 °F 87.3 °F 53.6 °F 29% 29.89 in 4.3 mi East 6.9 mph - N/A   Unknown
6:30 PM 87.8 °F 86.1 °F 55.4 °F 33% 29.89 in 3.7 mi East 5.8 mph - N/A   Unknown
7:00 PM 86.0 °F 84.9 °F 57.2 °F 37% 29.92 in 3.7 mi East 5.8 mph - N/A   Unknown
7:30 PM 84.2 °F 83.8 °F 59.0 °F 42% 29.92 in 3.7 mi East 6.9 mph - N/A   Unknown
8:00 PM 82.4 °F 82.9 °F 60.8 °F 48% 29.95 in 3.7 mi East 5.8 mph - N/A   Unknown
8:30 PM 82 °F - 60 °F 37% 29.88 in 2 mi East 9.2 mph - -   Haze
8:30 PM 82.4 °F 82.9 °F 60.8 °F 48% 29.95 in 3.7 mi East 9.2 mph - N/A   Unknown
9:00 PM 82.4 °F 82.5 °F 59.0 °F 45% 29.95 in 3.7 mi East 6.9 mph - N/A   Unknown
9:30 PM 80.6 °F 81.1 °F 59.0 °F 48% 29.95 in 3.7 mi ENE 3.5 mph - N/A   Unknown
10:00 PM 80.6 °F 81.5 °F 60.8 °F 51% 29.98 in 3.7 mi East 2.3 mph - N/A   Unknown
10:30 PM 78.8 °F - 60.8 °F 54% 29.98 in 3.7 mi East 3.5 mph - N/A   Partly Cloudy
11:00 PM 78.8 °F - 59.0 °F 51% 29.98 in 3.7 mi NE 3.5 mph - N/A   Partly Cloudy
11:30 PM 78 °F - 56 °F 36% 29.92 in 2 mi NE 3.5 mph - -   Haze
11:30 PM 78.8 °F - 55.4 °F 44% 29.98 in 3.7 mi NE 3.5 mph - N/A   Partly Cloudy